HAWK-3B

Last updated on Sun Jun 21 2026 00:03:43 GMT+0000 (Coordinated Universal Time)

1 48931U 21059BE 26171.44797828 .00040680 00000+0 34162-3 0 9994 2 48931 97.6656 8.4645 0003164 313.2941 46.8056 15.69810287278362
UTC large
Height (km)
Speed (km/s)
/
Latitude / Longitude
Inclination (degrees)
Orbital Period (minutes)
Azimuth
Elevation
Range (km)
Doppler Factor

Next 0 passes for location: London (51.5072 / 0.1276)

No passes found over London.
HAWK-3B